Wind_Speed
8 9 9 9 9 9 8 8 7 7 7 6 6 5 5 4 3 3 3 3 4 5 6 8 9 10 12 12 13 13 12 12 12 12 12 12 12 11 10 10 10 10 11
6 7 7 8 8 8 7 7 7 7 7 6 6 5 5 4 3 3 2 2 2 2 3 5 7 8 9 11 12 12 12 13 13 13 13 13 13 12 12 11 11 11 10
4 5 5 6 6 6 6 6 6 6 6 6 5 5 5 4 4 3 2 2 2 1 1 2 4 5 6 7 8 10 10 11 12 12 13 14 14 13 12 11 11 11 9
4 4 4 4 4 5 5 5 5 5 5 5 4 4 4 4 3 3 2 2 2 1 1 1 1 2 3 4 5 7 8 8 9 10 11 12 12 10 10 10 10 9 8
6 5 5 5 4 4 4 4 3 3 3 3 3 3 3 3 2 2 2 2 1 1 1 1 0 1 2 3 4 5 6 6 7 7 8 9 9 8 8 8 8 8 8
7 7 7 7 6 6 5 5 4 4 3 3 2 2 2 2 1 1 1 1 1 1 1 1 1 0 1 2 3 4 4 4 5 5 6 7 7 7 7 7 7 7 7
8 9 9 9 9 8 8 7 7 6 5 5 4 3 3 3 2 2 1 1 1 1 1 0 0 1 1 1 3 3 3 3 4 4 5 5 5 5 5 6 6 6 5
10 10 11 11 11 11 11 10 10 9 8 8 7 6 5 5 5 4 4 3 3 3 2 2 2 2 2 2 3 3 3 3 3 4 4 4 4 4 4 5 4 5 4
12 12 13 13 13 13 13 13 12 12 11 10 10 9 9 8 7 7 7 6 6 5 4 4 3 3 3 3 3 3 3 3 3 3 3 4 3 3 3 3 2 2 2
14 14 14 15 16 16 16 16 15 15 14 13 13 12 12 11 10 10 10 9 8 8 7 6 5 5 4 4 4 4 3 3 2 2 3 3 2 2 2 2 1 1 1
17 17 17 17 17 18 18 18 18 18 18 17 17 16 15 14 13 13 12 12 11 10 9 9 8 7 6 6 5 5 4 3 3 2 3 2 2 2 1 1 1 1 1
19 20 20 21 21 20 20 20 20 21 21 21 21 20 19 18 16 16 15 14 14 13 12 11 10 9 8 8 7 6 5 4 4 3 3 3 3 2 2 2 2 1 1
23 23 23 24 24 24 24 23 22 23 23 23 23 23 22 21 20 19 19 18 17 16 15 14 13 11 10 10 9 8 7 6 5 5 5 4 4 3 3 3 3 2 2
26 27 27 27 27 27 27 27 25 26 25 25 25 24 24 24 23 22 22 21 19 18 18 17 16 14 13 12 11 10 9 8 7 7 6 6 5 4 4 3 3 3 3
30 30 31 31 31 31 30 30 29 29 28 27 27 27 27 26 25 25 24 23 22 21 20 20 19 17 16 14 13 13 12 11 9 9 8 7 7 6 5 5 4 4 4
35 35 35 35 35 34 34 33 33 33 32 31 31 31 30 29 28 27 27 26 24 23 23 22 21 20 19 17 16 15 14 14 12 11 11 9 8 8 7 7 6 6 6
38 39 39 40 39 38 38 37 36 36 36 35 34 33 32 32 31 29 28 28 27 25 24 23 23 22 21 20 19 17 16 16 15 13 13 12 10 9 9 9 8 8 8
41 41 41 42 42 42 42 41 39 39 38 38 38 36 35 34 33 32 30 28 28 28 26 25 25 24 23 22 21 20 19 18 17 16 15 14 12 11 11 11 10 10 10
42 42 42 42 43 43 43 43 43 42 42 40 40 38 38 37 36 34 32 30 29 29 29 27 27 26 25 23 23 22 22 20 20 18 17 16 15 14 13 13 13 12 12
41 41 41 42 42 43 43 44 44 44 44 44 43 42 41 40 37 35 34 33 31 31 30 30 28 28 28 26 25 23 23 22 21 21 20 19 18 17 16 15 15 14 14
38 39 40 40 41 41 42 43 43 44 44 44 44 43 43 41 40 37 36 36 34 33 32 31 30 29 29 28 26 25 25 24 24 23 22 21 20 19 19 18 17 17 17
35 36 37 37 38 39 40 40 41 42 42 42 42 42 42 41 40 39 38 37 36 34 33 32 30 30 30 29 28 26 25 24 26 25 25 24 23 22 21 21 20 20 20
31 31 32 33 34 35 36 37 38 40 40 40 40 40 40 40 40 39 38 38 36 34 34 34 32 30 31 30 29 28 26 25 26 25 25 25 24 23 23 23 22 22 22
27 27 28 29 30 31 32 33 34 35 37 38 38 38 39 39 38 39 38 37 35 34 34 34 34 33 32 31 30 30 29 27 27 26 25 25 26 25 24 25 24 23 23
23 23 24 25 26 27 28 30 31 33 34 35 36 37 36 36 37 37 36 36 35 35 34 34 34 34 32 32 31 32 32 30 28 27 26 25 25 24 24 25 25 25 25
20 20 21 21 21 23 24 25 26 28 29 31 32 33 33 34 34 35 35 35 34 34 34 35 33 33 33 32 32 32 32 31 31 29 28 27 25 25 26 26 26 26 26
Wind_Direction
114 112 109 107 105 105 105 106 107 109 110 112 116 121 127 137 150 167 185 204 216 224 228 229 230 233 236 239 241 244 249 253 256 256 259 264 269 273 281 283 290 296 302
132 125 121 118 116 113 112 112 112 114 115 115 115 116 118 124 133 145 159 174 192 208 221 227 228 233 238 240 242 245 251 258 260 260 261 262 266 273 277 279 283 289 296
163 149 141 135 130 127 123 119 118 117 117 119 120 119 118 119 120 124 130 134 143 160 189 215 227 232 237 243 246 249 254 263 268 265 262 264 265 271 275 278 282 286 293
202 189 178 167 157 150 144 138 132 127 124 121 120 123 122 120 119 117 116 114 112 115 129 176 227 232 232 238 246 252 257 265 269 269 269 271 272 272 275 276 282 284 289
233 224 217 211 203 193 184 175 167 158 148 138 132 130 128 124 122 120 115 104 91 92 100 111 143 220 232 243 249 253 259 266 274 274 275 279 280 277 276 278 281 283 285
248 246 240 236 232 227 223 220 215 209 203 193 182 173 165 160 151 141 134 111 81 67 70 89 92 196 238 250 257 262 267 275 279 283 283 282 282 278 277 280 283 282 286
252 254 251 248 244 241 240 240 239 237 234 235 237 237 235 233 235 243 255 262 273 307 323 313 305 305 281 266 271 276 277 282 290 297 294 284 285 285 283 283 284 285 288
256 256 256 254 250 247 246 247 248 247 244 245 247 250 253 255 256 257 260 264 268 274 283 289 282 290 293 280 280 285 283 285 294 301 300 296 296 304 301 292 287 292 295
265 261 261 259 256 253 251 250 250 251 251 250 251 252 254 258 261 263 263 264 265 268 272 277 280 279 280 278 279 281 282 286 296 305 299 302 304 306 312 300 300 306 311
272 268 265 264 262 258 255 253 252 252 252 253 254 255 255 258 259 261 263 264 264 265 267 269 272 275 277 275 276 277 274 278 294 298 285 293 296 304 310 302 310 326 341
273 270 269 267 265 264 261 258 254 253 253 253 254 255 255 256 258 258 259 261 263 264 265 265 266 267 268 269 272 271 268 268 273 273 272 276 281 290 300 313 318 322 357
275 272 272 269 267 266 264 261 259 256 254 254 254 254 255 255 257 258 258 259 259 261 262 263 262 261 260 261 264 265 262 257 253 259 262 266 268 279 287 297 304 301 316
277 275 273 272 270 269 266 263 263 261 258 257 257 256 257 257 255 254 256 257 258 259 259 260 260 259 257 257 258 259 258 254 251 255 256 256 256 263 275 277 276 274 270
278 275 274 274 273 273 269 265 264 262 259 259 259 258 258 258 258 255 253 255 258 259 258 258 259 258 257 255 254 255 255 252 250 251 252 251 252 256 263 264 264 262 250
276 276 275 274 274 271 270 269 267 268 265 263 261 259 259 259 260 258 257 256 259 262 259 256 256 256 257 256 254 253 252 250 247 249 253 251 251 253 259 261 259 259 254
275 274 274 275 276 275 272 271 270 267 267 268 265 261 261 261 261 261 258 258 259 262 260 257 255 255 255 255 254 253 251 250 248 247 251 250 250 251 255 258 256 256 253
275 274 274 273 274 273 273 272 271 271 269 268 267 265 264 263 262 262 261 260 260 260 259 257 256 255 254 252 252 253 252 251 249 248 250 249 249 251 254 255 255 256 256
275 275 274 273 273 272 271 270 270 270 271 271 269 267 267 265 263 263 262 262 260 259 258 256 257 258 254 250 250 251 251 251 250 247 246 248 250 253 254 255 255 257 259
277 277 275 274 274 273 271 271 271 271 271 271 272 268 268 268 268 263 262 262 263 260 256 257 257 253 253 249 248 249 249 249 249 248 246 246 248 252 254 254 254 255 258
280 279 278 276 275 273 272 272 272 271 271 271 272 270 270 269 269 267 264 264 261 260 257 258 259 253 250 250 246 244 246 246 247 247 247 246 247 249 252 253 254 255 257
283 281 279 278 277 275 273 272 271 271 271 271 270 269 270 271 269 268 268 266 263 262 259 260 259 255 249 248 247 246 245 246 247 247 247 246 247 248 249 252 254 255 256
286 284 281 279 278 276 274 272 270 270 270 269 268 268 267 268 268 267 266 265 264 263 261 262 259 254 250 247 248 248 245 247 247 245 245 246 247 247 248 248 250 253 256
291 288 285 283 280 277 274 272 270 269 268 268 267 266 266 265 265 265 264 263 262 261 260 260 256 253 249 248 247 244 243 245 246 244 242 245 248 248 250 250 248 251 254
296 293 289 286 283 279 276 273 271 269 268 267 265 264 263 262 261 260 261 260 258 257 257 257 254 254 251 250 249 245 242 243 244 243 242 243 246 249 250 251 250 252 254
307 301 297 293 288 283 278 275 273 271 269 267 265 262 260 259 258 257 255 254 253 254 254 253 251 253 251 250 250 246 242 242 241 241 241 244 246 248 248 250 252 255 256
321 316 311 307 301 294 287 281 277 274 271 267 263 258 257 256 255 253 251 250 251 250 250 250 250 251 250 250 251 248 244 241 241 240 242 244 246 247 249 251 253 256 257
Height
5914 5913 5913 5913 5913 5913 5913 5912 5912 5912 5911 5911 5911 5911 5910 5910 5910 5910 5910 5910 5910 5910 5910 5910 5911 5911 5912 5912 5913 5914 5914 5915 5915 5915 5916 5916 5916 5916 5916 5916 5916 5915 5915
5915 5914 5914 5914 5914 5914 5914 5914 5913 5913 5912 5912 5912 5912 5911 5911 5911 5911 5910 5910 5910 5910 5910 5910 5910 5910 5911 5911 5912 5912 5913 5913 5913 5914 5914 5914 5914 5914 5914 5915 5914 5914 5914
5916 5915 5915 5915 5915 5915 5915 5915 5914 5914 5914 5913 5913 5913 5912 5912 5912 5911 5911 5910 5910 5910 5910 5910 5910 5910 5910 5910 5911 5911 5912 5912 5912 5912 5911 5911 5912 5912 5913 5913 5913 5913 5913
5916 5916 5916 5916 5916 5916 5916 5916 5915 5915 5915 5914 5914 5914 5913 5913 5913 5912 5912 5911 5910 5910 5910 5910 5909 5909 5909 5909 5910 5910 5910 5910 5910 5910 5910 5909 5909 5910 5911 5911 5912 5912 5912
5917 5917 5916 5916 5916 5916 5916 5916 5916 5915 5915 5915 5915 5914 5914 5914 5913 5913 5912 5912 5911 5910 5910 5910 5909 5909 5909 5909 5909 5909 5909 5909 5909 5909 5908 5908 5908 5909 5910 5910 5910 5911 5911
5916 5916 5916 5916 5916 5916 5916 5916 5916 5915 5915 5915 5915 5915 5914 5914 5913 5913 5912 5912 5911 5911 5910 5910 5909 5909 5909 5909 5909 5909 5908 5908 5908 5908 5908 5907 5907 5908 5908 5909 5909 5909 5909
5916 5915 5915 5915 5915 5915 5915 5915 5915 5915 5915 5914 5914 5914 5914 5914 5913 5913 5912 5912 5911 5911 5910 5910 5909 5909 5909 5908 5908 5908 5908 5908 5908 5907 5907 5907 5907 5907 5907 5908 5908 5908 5908
5914 5914 5913 5913 5913 5913 5913 5913 5913 5913 5913 5913 5913 5913 5913 5913 5913 5912 5912 5911 5911 5911 5910 5910 5909 5909 5908 5908 5908 5907 5907 5907 5907 5907 5907 5906 5906 5907 5907 5907 5907 5907 5907
5913 5912 5911 5911 5911 5911 5911 5911 5911 5911 5911 5911 5911 5911 5911 5912 5911 5911 5911 5910 5910 5910 5909 5909 5909 5908 5908 5908 5907 5907 5907 5907 5907 5907 5907 5906 5906 5906 5906 5906 5907 5906 5906
5910 5910 5910 5909 5909 5909 5909 5909 5909 5909 5909 5909 5909 5909 5909 5910 5910 5910 5909 5909 5909 5909 5908 5908 5908 5908 5907 5907 5907 5906 5906 5906 5906 5907 5906 5906 5906 5906 5906 5906 5906 5906 5906
5907 5907 5906 5906 5906 5906 5905 5905 5905 5906 5906 5906 5906 5907 5907 5907 5907 5907 5907 5907 5907 5907 5907 5907 5907 5907 5906 5906 5906 5906 5906 5906 5906 5906 5906 5906 5906 5906 5906 5906 5906 5907 5907
5904 5904 5903 5902 5902 5902 5902 5901 5901 5901 5901 5902 5902 5903 5903 5904 5904 5905 5904 5905 5905 5905 5905 5905 5905 5905 5905 5905 5905 5905 5905 5905 5905 5906 5905 5905 5905 5906 5906 5906 5906 5907 5907
5900 5900 5898 5898 5897 5897 5897 5897 5897 5897 5897 5897 5898 5899 5899 5899 5900 5901 5901 5901 5902 5902 5902 5902 5903 5903 5903 5903 5903 5903 5904 5904 5905 5905 5904 5905 5905 5905 5905 5906 5906 5906 5907
5895 5894 5893 5893 5892 5891 5891 5891 5891 5891 5891 5892 5893 5894 5894 5895 5896 5896 5897 5898 5898 5899 5899 5900 5900 5900 5901 5901 5901 5902 5902 5903 5903 5903 5903 5904 5904 5904 5905 5905 5905 5906 5906
5889 5888 5887 5886 5886 5885 5885 5885 5885 5884 5884 5885 5887 5888 5889 5890 5890 5892 5893 5894 5894 5895 5895 5896 5897 5897 5898 5898 5899 5899 5900 5900 5901 5902 5902 5902 5903 5903 5904 5904 5905 5905 5906
5882 5881 5880 5879 5878 5878 5878 5879 5879 5879 5879 5880 5879 5880 5882 5883 5884 5885 5887 5888 5889 5890 5891 5892 5893 5893 5894 5895 5895 5896 5897 5898 5899 5900 5900 5900 5901 5901 5902 5903 5904 5904 5905
5873 5872 5871 5870 5870 5870 5870 5870 5871 5871 5872 5872 5873 5872 5874 5876 5877 5879 5880 5882 5883 5884 5885 5887 5888 5889 5890 5891 5892 5893 5894 5894 5896 5897 5897 5898 5899 5900 5900 5901 5902 5903 5904
5864 5863 5862 5861 5860 5860 5861 5861 5862 5862 5863 5864 5865 5866 5866 5867 5869 5872 5873 5875 5877 5878 5880 5881 5882 5884 5885 5886 5888 5889 5890 5891 5892 5894 5895 5896 5897 5898 5899 5899 5900 5901 5902
5854 5853 5852 5851 5851 5850 5851 5851 5852 5853 5854 5855 5857 5858 5859 5859 5861 5863 5866 5867 5869 5872 5873 5875 5877 5878 5879 5881 5882 5884 5886 5887 5888 5890 5891 5893 5894 5895 5896 5897 5898 5899 5900
5845 5843 5842 5841 5841 5840 5840 5841 5842 5842 5844 5845 5847 5848 5850 5851 5852 5854 5857 5860 5862 5864 5866 5869 5870 5872 5874 5875 5877 5879 5881 5883 5884 5886 5887 5889 5891 5892 5893 5894 5895 5896 5897
5835 5833 5832 5831 5830 5830 5830 5830 5831 5832 5833 5834 5836 5838 5840 5842 5844 5846 5849 5852 5854 5857 5859 5861 5864 5865 5867 5870 5872 5874 5875 5878 5879 5880 5882 5884 5886 5888 5890 5891 5892 5893 5894
5826 5824 5822 5821 5820 5819 5819 5819 5820 5821 5822 5823 5825 5827 5830 5832 5834 5837 5840 5843 5846 5849 5851 5854 5856 5858 5861 5863 5866 5867 5870 5872 5874 5875 5877 5879 5881 5883 5885 5887 5888 5889 5890
5818 5815 5813 5812 5810 5809 5809 5808 5809 5810 5811 5813 5815 5817 5819 5822 5825 5828 5831 5834 5837 5840 5843 5846 5848 5851 5853 5856 5858 5861 5863 5865 5867 5870 5872 5873 5875 5877 5879 5881 5883 5885 5886
5811 5808 5805 5803 5802 5800 5799 5799 5799 5800 5801 5802 5804 5806 5808 5811 5814 5817 5821 5824 5828 5831 5835 5838 5840 5843 5846 5848 5851 5853 5856 5858 5861 5864 5866 5868 5870 5872 5874 5876 5878 5880 5882
5805 5801 5799 5796 5794 5792 5791 5790 5790 5790 5791 5792 5793 5795 5798 5800 5803 5807 5811 5814 5818 5822 5825 5829 5832 5835 5838 5840 5843 5846 5849 5852 5854 5857 5859 5862 5864 5866 5868 5870 5872 5874 5875
5800 5797 5794 5791 5788 5785 5783 5782 5781 5781 5781 5782 5783 5784 5787 5790 5794 5797 5800 5804 5808 5812 5815 5819 5823 5827 5830 5833 5835 5838 5841 5844 5847 5849 5852 5855 5857 5860 5862 5864 5866 5868 5869